[[{"header":{"parameterUnit":"m.s-1","parameterCategory":1,"la1":30.2991,"la2":30.254,"lo1":-89.0895,"lo2":-89.0444,"dy":0.0017,"dx":0.0017,"nx":28,"ny":28,"refTime":"2024-10-13T09:00:00:Z","depth":0,"parameterNumber":2,"parameterNumberName":"U-component_of_WINDS"},"data":[0,0,0,0,0,0,0,0,0,0,0,0,0,0,0,0,0,0,0,0,0,0,0,0,0,0,0,0,0,0,0,0,0,0,0,0,0,0,0,0,0,0,0,0,0,0,0,0,0,0,0,0,0,0,0,0,0,0,2.9442,2.9444,0,2.9606,2.9608,2.961,2.9626,2.9624,2.9623,2.9621,2.9791,2.9797,2.9803,0,0,0,0,0,0,0,0,0,0,0,0,0,2.9146,2.9151,2.9442,2.9444,2.9446,2.9606,2.9608,2.961,2.9626,2.9624,2.9622,2.962,2.9789,2.9796,2.9804,0,0,0,0,0,0,0,0,0,0,0,0,0,2.9288,2.9153,2.9441,2.9473,2.9478,2.9605,2.9608,2.9611,2.9627,2.9624,2.9622,2.9619,2.9787,2.9796,2.9805,2.9913,0,0,2.9833,2.9837,0,0,0,0,0,0,0,0,2.928,2.9299,2.9466,2.9471,2.9476,2.9593,2.9566,2.9712,2.9628,2.957,2.9621,2.9618,2.9727,2.9741,2.9778,2.9921,2.9928,2.9834,2.9839,2.9843,2.9846,0,0,0,0,0,0,0,2.927,2.9292,2.9507,2.9469,2.9475,2.948,2.9498,2.9594,2.9661,2.9575,2.9577,2.9596,2.973,2.9769,2.9782,2.993,2.9833,2.9842,2.9847,2.9851,3.0172,3.0174,0,0,0,0,0,0,2.9254,2.9284,2.9502,2.9512,2.937,2.9488,2.9507,2.9558,2.966,2.9673,2.9598,2.9596,2.9755,2.9771,2.9788,2.9921,2.9843,2.9852,2.9857,3.0169,3.0172,3.0175,0,0,0,0,0,0,2.9248,2.9273,2.9495,2.9398,2.9427,2.9495,2.9553,2.9563,2.9602,2.9677,2.969,2.9625,2.9753,2.9775,2.9882,2.9927,2.9856,2.9864,3.0165,3.017,3.0174,3.0188,0,0,0,0,0,0,2.9239,2.9271,2.9312,2.9399,2.9432,2.9585,2.9555,2.9568,2.9617,2.9617,2.9706,2.9719,2.9753,2.9868,2.9891,2.9939,2.9871,3.0161,3.0167,3.0172,3.0184,3.0193,3.02,0,0,0,0,0,2.9228,2.9309,2.9314,2.934,2.9484,2.9587,2.9606,2.9643,2.9621,2.9663,2.9712,2.9716,2.9919,2.9879,2.9905,2.9956,3.0158,3.0165,3.0172,3.018,3.0191,3.02,0,0,0,0,0,0,2.9225,2.9321,2.9327,2.9438,2.9505,2.959,2.9644,2.9653,2.9727,2.9723,2.9767,2.9787,2.9892,2.9935,2.9888,3.0067,3.0037,3.0049,3.0034,3.0045,3.0053,3.004,2.9879,0,0,0,0,0,2.9238,2.9313,2.9393,2.9483,2.9516,2.9574,2.9621,2.9644,2.9714,2.9742,2.9799,2.9868,2.9948,2.9999,3.0076,3.0191,3.0211,3.024,3.0248,3.0254,3.0263,3.0329,3.0342,3.0198,3.0198,3.0198,0,0,2.9264,2.9325,2.937,2.9484,2.9538,2.9616,2.9598,2.968,2.9739,2.9755,2.9859,2.9903,2.9984,3.0095,3.0147,3.0134,3.0308,3.0262,3.0267,3.0273,3.0337,3.035,3.0362,3.0202,3.0202,3.0201,0,0,2.935,2.9404,2.9486,2.9541,2.9623,2.9662,2.9681,2.9766,2.9796,2.9901,2.9915,2.9986,3.0122,3.0179,3.0225,3.0336,3.0343,3.0361,3.0402,3.0465,3.0477,3.0487,3.0526,3.054,3.037,3.0371,3.0371,0,2.9372,2.9489,2.9527,2.961,2.966,2.9679,2.9763,2.9814,2.9918,2.9952,2.9937,3.0108,3.0164,3.0289,3.0316,3.0354,3.0378,3.035,3.0472,3.0482,3.0493,3.0531,3.0546,3.0372,3.0372,3.0372,3.0372,0,2.9512,2.9593,2.9649,2.9748,2.9805,2.9888,2.994,2.9993,3.0012,3.0053,3.016,3.0228,3.0319,3.0351,3.0371,3.048,3.047,3.0463,3.0433,3.0507,3.0544,3.0559,3.0374,3.0374,3.0373,3.0373,0,0,2.9598,2.9719,2.9739,2.9785,2.9878,2.9942,3.0027,3.0116,3.0161,3.0233,3.0305,3.0421,3.0415,3.0468,3.0494,3.055,3.0634,3.0536,3.0539,3.0551,3.076,3.0763,3.078,3.064,3.0643,3.0645,3.0753,0,2.9695,2.9845,2.9883,3.0011,3.0087,3.0107,3.0181,3.0247,3.0288,3.036,3.0406,3.0487,3.0473,3.0505,3.0561,3.0612,3.0676,3.0605,3.0708,3.0711,3.0686,3.0799,3.0803,3.0901,3.0767,3.077,3.0772,0,2.9827,2.9901,3.0037,3.0121,3.0155,3.022,3.0306,3.0374,3.045,3.0476,3.0536,3.0558,3.0648,3.0615,3.0741,3.0692,3.0737,3.0769,3.0773,3.0783,3.0744,3.0811,3.0933,3.0947,3.0795,3.0793,3.0791,0,2.9876,3.001,3.0109,3.0148,3.0249,3.0295,3.0339,3.0413,3.0464,3.054,3.0575,3.066,3.0707,3.0774,3.0818,3.079,3.0941,3.0911,3.0965,3.0964,3.0994,3.0992,3.1124,3.1025,3.1025,3.1025,3.1025,0,2.9979,3.0061,3.0132,3.0193,3.0286,3.033,3.0421,3.0467,3.0533,3.0603,3.0627,3.0693,3.0749,3.0823,3.0859,3.0958,3.0979,3.1003,3.1012,3.1,3.0997,3.1029,3.1023,3.1029,3.1028,3.1027,3.1027,0,3.0049,3.01,3.0208,3.0296,3.032,3.0385,3.046,3.0521,3.0564,3.0653,3.0676,3.0744,3.0832,3.0884,3.0996,3.102,3.113,3.1136,3.1104,3.1107,3.1158,3.1152,3.1315,3.1339,3.1225,3.1226,3.1227,0,3.011,3.0174,3.0269,3.0317,3.0363,3.0441,3.0494,3.0542,3.0596,3.0689,3.0738,3.0828,3.0903,3.1044,3.1103,3.119,3.1197,3.1249,3.121,3.1197,3.1198,3.1193,3.1199,3.1254,3.1255,3.1256,3.1257,0,3.0214,3.0237,3.0312,3.0397,3.046,3.0529,3.0598,3.0637,3.0696,3.0757,3.0848,3.0905,3.102,3.111,3.1202,3.1249,3.1263,3.1269,3.1286,3.1274,3.1253,3.1265,3.112,3.1264,3.1264,3.1263,3.1263,3.1262,3.0281,3.0339,3.0415,3.0499,3.0556,3.062,3.0681,3.0732,3.0809,3.0905,3.0929,3.1025,3.1101,3.1226,3.1276,3.1352,3.1344,3.1368,3.1374,3.1379,3.138,3.1242,3.1369,3.1369,3.1369,3.1369,3.1369,0,3.0386,3.0436,3.0513,3.0609,3.0675,3.0683,3.0761,3.0816,3.0899,3.097,3.1043,3.1148,3.1235,3.1303,3.1393,3.1441,3.145,3.1463,3.1459,3.147,3.1383,3.1359,3.1454,3.1454,3.1454,3.1454,3.1454,3.1454,3.0448,3.0546,3.0578,3.0706,3.0756,3.0849,3.0893,3.0953,3.1009,3.1125,3.1198,3.1241,3.1311,3.1407,3.1488,3.1506,3.1538,3.155,3.1568,3.1485,3.1476,3.1467,3.1445,3.1556,3.1557,3.1649,3.165,3.165]},{"header":{"parameterUnit":"m.s-1","parameterCategory":1,"la1":30.2991,"la2":30.254,"lo1":-89.0895,"lo2":-89.0444,"dy":0.0017,"dx":0.0017,"nx":28,"ny":28,"refTime":"2024-10-13T09:00:00:Z","depth":0,"parameterNumber":3,"parameterNumberName":"V-component_of_WINDS"},"data":[0,0,0,0,0,0,0,0,0,0,0,0,0,0,0,0,0,0,0,0,0,0,0,0,0,0,0,0,0,0,0,0,0,0,0,0,0,0,0,0,0,0,0,0,0,0,0,0,0,0,0,0,0,0,0,0,0,0,0.6917,0.6918,0,0.7023,0.7025,0.7026,0.7036,0.7035,0.7034,0.7033,0.7145,0.7148,0.7152,0,0,0,0,0,0,0,0,0,0,0,0,0,0.6725,0.6729,0.6917,0.6918,0.692,0.7023,0.7025,0.7026,0.7036,0.7035,0.7033,0.7032,0.7143,0.7148,0.7153,0,0,0,0,0,0,0,0,0,0,0,0,0,0.6818,0.673,0.6917,0.6937,0.694,0.7023,0.7025,0.7026,0.7036,0.7035,0.7033,0.7032,0.7142,0.7148,0.7153,0.7224,0,0,0.7172,0.7175,0,0,0,0,0,0,0,0,0.6812,0.6825,0.6933,0.6936,0.6939,0.7015,0.6998,0.7093,0.7037,0.7,0.7033,0.7031,0.7103,0.7112,0.7136,0.723,0.7234,0.7172,0.7176,0.7179,0.718,0,0,0,0,0,0,0,0.6806,0.682,0.6959,0.6934,0.6938,0.6942,0.6953,0.7016,0.706,0.7003,0.7004,0.7016,0.7104,0.713,0.7138,0.7236,0.7172,0.7178,0.7181,0.7184,0.7394,0.7396,0,0,0,0,0,0,0.6795,0.6815,0.6956,0.6962,0.687,0.6946,0.6959,0.6992,0.7059,0.7067,0.7018,0.7016,0.712,0.7131,0.7142,0.7231,0.7179,0.7184,0.7188,0.7392,0.7395,0.7397,0,0,0,0,0,0,0.6791,0.6808,0.6951,0.6889,0.6907,0.6952,0.6989,0.6995,0.7021,0.707,0.7078,0.7036,0.712,0.7134,0.7204,0.7235,0.7187,0.7193,0.739,0.7393,0.7396,0.7408,0,0,0,0,0,0,0.6786,0.6806,0.6833,0.6889,0.6911,0.7011,0.699,0.6998,0.7031,0.703,0.7089,0.7097,0.7119,0.7195,0.721,0.7242,0.7197,0.7388,0.7391,0.7395,0.7405,0.7411,0.7416,0,0,0,0,0,0.6779,0.6833,0.6834,0.6851,0.6945,0.7012,0.7025,0.7048,0.7033,0.7061,0.7093,0.7095,0.7228,0.7202,0.7219,0.7254,0.7386,0.739,0.7395,0.7403,0.741,0.7416,0,0,0,0,0,0,0.678,0.6841,0.6843,0.6917,0.6959,0.7014,0.705,0.7055,0.7103,0.7101,0.7129,0.7142,0.7211,0.7239,0.7209,0.7326,0.7306,0.7314,0.7306,0.7313,0.7319,0.7311,0.7202,0,0,0,0,0,0.6789,0.6837,0.6888,0.6948,0.6969,0.7006,0.7036,0.705,0.7096,0.7114,0.7151,0.7196,0.7248,0.7282,0.7332,0.7408,0.7422,0.7441,0.7446,0.745,0.7458,0.7501,0.751,0.7412,0.7412,0.7411,0,0,0.6808,0.6847,0.6876,0.6949,0.6984,0.7035,0.7021,0.7075,0.7113,0.7123,0.7191,0.7219,0.7271,0.7345,0.7379,0.7371,0.7488,0.7456,0.7459,0.7464,0.7507,0.7516,0.7524,0.7415,0.7414,0.7414,0,0,0.6869,0.6902,0.6956,0.6991,0.7043,0.7067,0.708,0.7134,0.7153,0.7222,0.723,0.7276,0.7365,0.7402,0.7432,0.7506,0.7511,0.7522,0.7551,0.7593,0.7601,0.7608,0.7637,0.7646,0.7528,0.7528,0.7528,0,0.6886,0.6962,0.6984,0.7038,0.7071,0.708,0.7136,0.7168,0.7235,0.7258,0.7246,0.7358,0.7393,0.7476,0.7494,0.7518,0.7535,0.7516,0.7598,0.7606,0.7613,0.764,0.765,0.753,0.7529,0.7529,0.7529,0,0.6982,0.7034,0.7072,0.7135,0.7171,0.7226,0.7257,0.7291,0.7302,0.7327,0.7398,0.7441,0.75,0.7521,0.7532,0.7606,0.7599,0.7592,0.7573,0.7623,0.7649,0.7659,0.7531,0.7531,0.753,0.753,0,0,0.7048,0.7122,0.7135,0.7165,0.7222,0.7264,0.7319,0.7377,0.7406,0.7451,0.7499,0.7574,0.7568,0.7603,0.7618,0.7655,0.7712,0.7644,0.7646,0.7657,0.7798,0.7804,0.7816,0.7715,0.7717,0.7718,0.7794,0,0.7117,0.7215,0.7236,0.7321,0.7371,0.738,0.7428,0.7469,0.7494,0.754,0.7568,0.7621,0.7609,0.763,0.7666,0.7698,0.7742,0.7692,0.7762,0.7764,0.7751,0.7829,0.7836,0.7905,0.7804,0.7806,0.7807,0,0.7211,0.7258,0.7347,0.7399,0.7421,0.7464,0.7518,0.7562,0.7609,0.7624,0.7662,0.7674,0.7733,0.7708,0.779,0.7756,0.7786,0.7805,0.7809,0.7818,0.779,0.7843,0.7928,0.7939,0.7823,0.7822,0.7821,0,0.7253,0.7338,0.7403,0.7427,0.7488,0.7519,0.7546,0.7591,0.7624,0.7672,0.7694,0.7748,0.7778,0.782,0.7846,0.7826,0.7927,0.7904,0.7943,0.7943,0.7966,0.7965,0.806,0.7981,0.7981,0.7981,0.7981,0,0.7329,0.7384,0.7423,0.7463,0.7525,0.7549,0.761,0.7637,0.7677,0.7724,0.7734,0.7777,0.7808,0.7856,0.7876,0.7942,0.7955,0.7971,0.7976,0.7971,0.797,0.7993,0.799,0.7984,0.7983,0.7982,0.7982,0,0.7387,0.7415,0.7487,0.7539,0.7553,0.7597,0.7641,0.7681,0.7705,0.7764,0.7779,0.7818,0.7875,0.7904,0.7976,0.7989,0.8064,0.8065,0.8048,0.8051,0.8089,0.8086,0.8204,0.8221,0.8129,0.813,0.8131,0,0.7435,0.7478,0.7534,0.7565,0.7593,0.7643,0.7677,0.7701,0.7736,0.7793,0.7826,0.7883,0.7931,0.8022,0.8057,0.8112,0.8116,0.8153,0.8124,0.8119,0.8119,0.8117,0.8122,0.8159,0.816,0.8161,0.8161,0,0.7518,0.7529,0.7577,0.763,0.767,0.7713,0.7756,0.7781,0.7812,0.7851,0.7909,0.7946,0.8018,0.8076,0.8133,0.8162,0.8168,0.817,0.8182,0.8179,0.8168,0.8177,0.8065,0.8168,0.8167,0.8167,0.8166,0.8166,0.7574,0.7613,0.7658,0.7712,0.7746,0.7785,0.7825,0.7854,0.7903,0.7963,0.7974,0.8036,0.8083,0.816,0.819,0.824,0.8232,0.8249,0.8254,0.8259,0.8262,0.8158,0.825,0.825,0.825,0.825,0.825,0,0.7659,0.7689,0.7737,0.7796,0.7838,0.7838,0.7885,0.792,0.7974,0.8016,0.8063,0.813,0.8185,0.8224,0.8281,0.8313,0.8317,0.8327,0.8327,0.8334,0.8264,0.8249,0.8323,0.8323,0.8323,0.8323,0.8323,0.8323,0.7709,0.7774,0.7791,0.7874,0.7903,0.7964,0.7991,0.8028,0.8061,0.8136,0.8181,0.8206,0.8247,0.8307,0.8358,0.8368,0.839,0.84,0.841,0.8346,0.8338,0.8331,0.8317,0.8404,0.8404,0.8476,0.8477,0.8477]}]]